Location: Bothwell
(41.7170°N, 112.2589°W)
Time: 01:33:52
(UTC+00:00)

Tiros 1 - Pass Details

Date: 17 May 2026
Orbit: 618 x 649 km, 48.4° (Epoch: 6 June)

Event Time Altitude Azimuth Distance (km) Brightness Sun altitude
Rises 11:21:21 0° 298° (WNW) 2,900 10.2 -8.2°
Reaches altitude 10° 11:23:41 10° 300° (WNW) 1,988 9.4 -7.8°
Maximum altitude 11:28:15 77° 26° (NNE) 638 7.3 -7.1°
Drops below altitude 10° 11:32:47 10° 113° (ESE) 1,973 10.2 -6.4°
Sets 11:35:05 0° 115° (ESE) 2,876 11.0 -6.0°
